| time (UTC) | temp F | wind direction | speed MPH | gust MPH | rain 1hr in | rain 24hr in | rain mn in | humidity % | barometer mb |
| 20260502221550 | 48 | 48 | 3.0 | 4.0 | 0.00 | 0.00 | 0.00 | 45 | 1017.0 |
| 20260502221048 | 48 | 320 | 2.0 | 3.0 | 0.00 | 0.00 | 0.00 | 45 | 1017.1 |
| 20260502220543 | 48 | 77 | 1.0 | 3.0 | 0.00 | 0.00 | 0.00 | 46 | 1017.0 |
| 20260502220040 | 48 | 347 | 0.0 | 2.0 | 0.00 | 0.00 | 0.00 | 45 | 1016.9 |
| 20260502215537 | 48 | 348 | 1.0 | 3.0 | 0.00 | 0.00 | 0.00 | 47 | 1017.0 |
| 20260502215034 | 48 | 310 | 1.0 | 2.0 | 0.00 | 0.00 | 0.00 | 49 | 1016.9 |
| 20260502214531 | 48 | 326 | 0.0 | 0.0 | 0.00 | 0.00 | 0.00 | 49 | 1016.8 |
| 20260502214029 | 48 | 254 | 1.0 | 3.0 | 0.00 | 0.00 | 0.00 | 52 | 1017.0 |
| 20260502213525 | 48 | 294 | 1.0 | 2.0 | 0.00 | 0.00 | 0.00 | 51 | 1016.9 |
| 20260502213023 | 48 | 241 | 1.0 | 2.0 | 0.00 | 0.00 | 0.00 | 49 | 1016.9 |
| 20260502212522 | 49 | 286 | 3.0 | 4.0 | 0.00 | 0.00 | 0.00 | 46 | 1016.6 |
| 20260502212019 | 49 | 336 | 1.0 | 3.0 | 0.00 | 0.00 | 0.00 | 45 | 1016.6 |
| 20260502211514 | 49 | 323 | 3.0 | 4.0 | 0.00 | 0.00 | 0.00 | 41 | 1016.7 |
| 20260502211012 | 49 | 272 | 2.0 | 7.0 | 0.00 | 0.00 | 0.00 | 41 | 1016.7 |
| 20260502210509 | 49 | 37 | 1.0 | 7.0 | 0.00 | 0.00 | 0.00 | 44 | 1016.6 |
| 20260502210006 | 49 | 259 | 0.0 | 3.0 | 0.00 | 0.00 | 0.00 | 45 | 1016.7 |
| 20260502205502 | 49 | 253 | 3.0 | 7.0 | 0.00 | 0.00 | 0.00 | 44 | 1016.7 |
| 20260502204959 | 50 | 335 | 2.0 | 3.0 | 0.00 | 0.00 | 0.00 | 43 | 1016.6 |
| 20260502204456 | 49 | 257 | 1.0 | 2.0 | 0.00 | 0.00 | 0.00 | 44 | 1016.7 |
| 20260502203954 | 50 | 15 | 1.0 | 6.0 | 0.00 | 0.00 | 0.00 | 43 | 1016.6 |
| 20260502203451 | 50 | 334 | 4.0 | 6.0 | 0.00 | 0.00 | 0.00 | 45 | 1016.7 |
| 20260502202947 | 50 | 218 | 1.0 | 3.0 | 0.00 | 0.00 | 0.00 | 45 | 1016.7 |
| 20260502202444 | 50 | 332 | 1.0 | 3.0 | 0.00 | 0.00 | 0.00 | 44 | 1016.7 |
| 20260502201942 | 49 | 100 | 2.0 | 3.0 | 0.00 | 0.00 | 0.00 | 44 | 1016.6 |
| 20260502201438 | 49 | 346 | 1.0 | 6.0 | 0.00 | 0.00 | 0.00 | 46 | 1016.8 |
| 20260502200935 | 49 | 36 | 3.0 | 7.0 | 0.00 | 0.00 | 0.00 | 45 | 1016.7 |
| 20260502200430 | 49 | 307 | 3.0 | 7.0 | 0.00 | 0.00 | 0.00 | 45 | 1016.9 |
| 20260502195928 | 50 | 291 | 2.0 | 6.0 | 0.00 | 0.00 | 0.00 | 44 | 1016.9 |
| 20260502195425 | 50 | 64 | 1.0 | 4.0 | 0.00 | 0.00 | 0.00 | 43 | 1016.8 |
| 20260502194922 | 49 | 79 | 2.0 | 6.0 | 0.00 | 0.00 | 0.00 | 45 | 1016.9 |
| 20260502194419 | 49 | 291 | 1.0 | 4.0 | 0.00 | 0.00 | 0.00 | 46 | 1017.1 |
| 20260502193914 | 49 | 277 | 2.0 | 3.0 | 0.00 | 0.00 | 0.00 | 47 | 1017.0 |
| 20260502193412 | 49 | 11 | 4.0 | 6.0 | 0.00 | 0.00 | 0.00 | 46 | 1017.0 |
| 20260502192907 | 50 | 306 | 2.0 | 6.0 | 0.00 | 0.00 | 0.00 | 43 | 1016.9 |
| 20260502192404 | 50 | 249 | 1.0 | 3.0 | 0.00 | 0.00 | 0.00 | 43 | 1017.0 |
| 20260502191902 | 50 | 281 | 3.0 | 9.0 | 0.00 | 0.00 | 0.00 | 45 | 1017.2 |
| 20260502191359 | 51 | 294 | 4.0 | 6.0 | 0.00 | 0.00 | 0.00 | 44 | 1017.1 |
| 20260502190856 | 51 | 278 | 2.0 | 6.0 | 0.00 | 0.00 | 0.00 | 44 | 1017.2 |
| 20260502190354 | 50 | 6 | 0.0 | 8.0 | 0.00 | 0.00 | 0.00 | 43 | 1017.1 |
| 20260502185850 | 51 | 241 | 3.0 | 6.0 | 0.00 | 0.00 | 0.00 | 42 | 1017.2 |
| 20260502185345 | 50 | 111 | 4.0 | 7.0 | 0.00 | 0.00 | 0.00 | 44 | 1017.3 |
| 20260502184843 | 50 | 227 | 2.0 | 7.0 | 0.00 | 0.00 | 0.00 | 45 | 1017.3 |
| 20260502184338 | 50 | 66 | 2.0 | 4.0 | 0.00 | 0.00 | 0.00 | 47 | 1017.3 |
| 20260502183835 | 50 | 245 | 4.0 | 7.0 | 0.00 | 0.00 | 0.00 | 47 | 1017.3 |
| 20260502183331 | 50 | 266 | 3.0 | 7.0 | 0.00 | 0.00 | 0.00 | 46 | 1017.2 |
| 20260502182826 | 50 | 267 | 3.0 | 6.0 | 0.00 | 0.00 | 0.00 | 47 | 1017.1 |
| 20260502182322 | 49 | 318 | 0.0 | 2.0 | 0.00 | 0.00 | 0.00 | 44 | 1017.3 |
| 20260502181819 | 50 | 273 | 2.0 | 3.0 | 0.00 | 0.00 | 0.00 | 46 | 1017.3 |
| 20260502181317 | 51 | 249 | 2.0 | 6.0 | 0.00 | 0.00 | 0.00 | 44 | 1017.2 |
| 20260502180815 | 51 | 17 | 4.0 | 8.0 | 0.00 | 0.00 | 0.00 | 47 | 1017.2 |
| 20260502180312 | 51 | 342 | 2.0 | 6.0 | 0.00 | 0.00 | 0.00 | 43 | 1017.2 |
| 20260502170231 | 48 | 226 | 4.0 | 8.0 | 0.00 | 0.00 | 0.00 | 45 | 1017.7 |
| 20260502164218 | 47 | 316 | 2.0 | 4.0 | 0.00 | 0.00 | 0.00 | 51 | 1017.4 |
| 20260502163713 | 48 | 300 | 3.0 | 7.0 | 0.00 | 0.00 | 0.00 | 49 | 1017.6 |
| 20260502163210 | 47 | 284 | 2.0 | 3.0 | 0.00 | 0.00 | 0.00 | 49 | 1017.5 |
| 20260502162708 | 47 | 302 | 1.0 | 4.0 | 0.00 | 0.00 | 0.00 | 49 | 1017.7 |
| 20260502162204 | 47 | 232 | 1.0 | 9.0 | 0.00 | 0.00 | 0.00 | 48 | 1017.8 |
| 20260502161701 | 48 | 64 | 2.0 | 7.0 | 0.00 | 0.00 | 0.00 | 51 | 1017.8 |
| 20260502161158 | 50 | 263 | 3.0 | 6.0 | 0.00 | 0.00 | 0.00 | 48 | 1017.9 |
| 20260502160656 | 50 | 2 | 2.0 | 6.0 | 0.00 | 0.00 | 0.00 | 47 | 1017.9 |
| 20260502160155 | 50 | 216 | 0.0 | 6.0 | 0.00 | 0.00 | 0.00 | 49 | 1017.9 |
| 20260502152103 | 46 | 308 | 0.0 | 1.0 | 0.00 | 0.00 | 0.00 | 56 | 1017.9 |
| 20260502151600 | 46 | 228 | 3.0 | 6.0 | 0.00 | 0.00 | 0.00 | 54 | 1017.8 |
| 20260502151057 | 46 | 332 | 2.0 | 2.0 | 0.00 | 0.00 | 0.00 | 57 | 1017.6 |
| 20260502150554 | 46 | 5 | 1.0 | 7.0 | 0.00 | 0.00 | 0.00 | 55 | 1017.9 |
| 20260502130439 | 39 | 227 | 1.0 | 4.0 | 0.00 | 0.00 | 0.00 | 80 | 1017.4 |
| 20260502123422 | 36 | 274 | 1.0 | 4.0 | 0.00 | 0.00 | 0.00 | 99 | 1017.6 |
| 20260502122919 | 35 | 87 | 2.0 | 3.0 | 0.00 | 0.00 | 0.00 | 99 | 1017.4 |
| 20260502122415 | 35 | 300 | 2.0 | 3.0 | 0.00 | 0.00 | 0.00 | 99 | 1017.3 |
| 20260502121914 | 35 | 262 | 0.0 | 1.0 | 0.00 | 0.00 | 0.00 | 99 | 1017.3 |
| 20260502121410 | 34 | 344 | 2.0 | 2.0 | 0.00 | 0.00 | 0.00 | 99 | 1017.2 |
| 20260502120908 | 34 | 209 | 0.0 | 0.0 | 0.00 | 0.00 | 0.00 | 99 | 1017.1 |
| 20260502120404 | 34 | 52 | 0.0 | 0.0 | 0.00 | 0.00 | 0.00 | 99 | 1017.4 |
| 20260502115901 | 34 | 210 | 0.0 | 0.0 | 0.00 | 0.00 | 0.00 | 99 | 1017.3 |
| 20260502115358 | 33 | 206 | 0.0 | 0.0 | 0.00 | 0.00 | 0.00 | 99 | 1017.1 |
| 20260502114854 | 33 | 206 | 0.0 | 0.0 | 0.00 | 0.00 | 0.00 | 99 | 1017.2 |
| 20260502114352 | 33 | 206 | 0.0 | 0.0 | 0.00 | 0.00 | 0.00 | 99 | 1017.0 |
| 20260502113848 | 33 | 206 | 0.0 | 0.0 | 0.00 | 0.00 | 0.00 | 99 | 1017.2 |
| 20260502113346 | 34 | 206 | 0.0 | 0.0 | 0.00 | 0.00 | 0.00 | 99 | 1017.2 |
| 20260502112844 | 33 | 205 | 0.0 | 0.0 | 0.00 | 0.00 | 0.00 | 99 | 1017.0 |
| 20260502112341 | 32 | 205 | 0.0 | 0.0 | 0.00 | 0.00 | 0.00 | 99 | 1017.0 |
| 20260502111834 | 31 | 205 | 0.0 | 0.0 | 0.00 | 0.00 | 0.00 | 99 | 1017.0 |
| 20260502111331 | 31 | 205 | 0.0 | 0.0 | 0.00 | 0.00 | 0.00 | 99 | 1017.0 |
| 20260502110828 | 31 | 206 | 0.0 | 0.0 | 0.00 | 0.00 | 0.00 | 99 | 1016.9 |
| 20260502110326 | 31 | 206 | 0.0 | 0.0 | 0.00 | 0.00 | 0.00 | 99 | 1017.0 |
| 20260502105823 | 31 | 206 | 0.0 | 0.0 | 0.00 | 0.00 | 0.00 | 99 | 1017.0 |
| 20260502105320 | 31 | 206 | 0.0 | 0.0 | 0.00 | 0.00 | 0.00 | 99 | 1016.8 |
| 20260502104817 | 31 | 206 | 0.0 | 0.0 | 0.00 | 0.00 | 0.00 | 99 | 1016.9 |
| 20260502104315 | 30 | 206 | 0.0 | 0.0 | 0.00 | 0.00 | 0.00 | 99 | 1016.9 |
| 20260502103812 | 30 | 206 | 0.0 | 0.0 | 0.00 | 0.00 | 0.00 | 99 | 1017.0 |
| 20260502103309 | 30 | 206 | 0.0 | 0.0 | 0.00 | 0.00 | 0.00 | 99 | 1016.8 |
| 20260502102807 | 31 | 206 | 0.0 | 0.0 | 0.00 | 0.00 | 0.00 | 99 | 1016.8 |
| 20260502102306 | 31 | 206 | 0.0 | 0.0 | 0.00 | 0.00 | 0.00 | 99 | 1016.8 |
| 20260502101801 | 31 | 206 | 0.0 | 0.0 | 0.00 | 0.00 | 0.00 | 99 | 1017.1 |
| 20260502101258 | 31 | 206 | 0.0 | 0.0 | 0.00 | 0.00 | 0.00 | 99 | 1016.9 |
| 20260502100756 | 31 | 206 | 0.0 | 0.0 | 0.00 | 0.00 | 0.00 | 99 | 1016.9 |
| 20260502100255 | 31 | 206 | 0.0 | 0.0 | 0.00 | 0.00 | 0.00 | 99 | 1016.9 |
| 20260502091229 | 32 | 206 | 0.0 | 0.0 | 0.00 | 0.00 | 0.00 | 99 | 1016.9 |
| 20260502090726 | 32 | 206 | 0.0 | 0.0 | 0.00 | 0.00 | 0.00 | 99 | 1016.8 |
| 20260502090223 | 32 | 206 | 0.0 | 0.0 | 0.00 | 0.00 | 0.00 | 99 | 1016.5 |
| 20260502071124 | 33 | 207 | 0.0 | 0.0 | 0.00 | 0.00 | 0.00 | 99 | 1016.7 |
| 20260502070622 | 33 | 207 | 0.0 | 0.0 | 0.00 | 0.00 | 0.00 | 99 | 1016.7 |
| 20260502070120 | 33 | 207 | 0.0 | 0.0 | 0.00 | 0.00 | 0.00 | 99 | 1016.7 |
| 20260502065618 | 33 | 207 | 0.0 | 0.0 | 0.00 | 0.12 | 0.12 | 99 | 1016.7 |
| 20260502065115 | 33 | 207 | 0.0 | 0.0 | 0.00 | 0.12 | 0.12 | 99 | 1016.8 |
| 20260502064614 | 33 | 207 | 0.0 | 0.0 | 0.00 | 0.12 | 0.12 | 99 | 1016.8 |
| 20260502064111 | 33 | 207 | 0.0 | 0.0 | 0.00 | 0.12 | 0.12 | 98 | 1016.9 |
| 20260502063608 | 34 | 207 | 0.0 | 0.0 | 0.00 | 0.12 | 0.12 | 98 | 1016.9 |
| 20260502063106 | 34 | 207 | 0.0 | 0.0 | 0.00 | 0.12 | 0.12 | 98 | 1016.9 |
| 20260502062603 | 34 | 207 | 0.0 | 0.0 | 0.00 | 0.12 | 0.12 | 98 | 1017.0 |
| 20260502062101 | 34 | 207 | 0.0 | 0.0 | 0.00 | 0.12 | 0.12 | 98 | 1016.9 |
| 20260502061559 | 35 | 207 | 0.0 | 0.0 | 0.00 | 0.12 | 0.12 | 98 | 1016.9 |
| 20260502061056 | 35 | 208 | 0.0 | 0.0 | 0.00 | 0.12 | 0.12 | 98 | 1017.0 |
| 20260502060555 | 35 | 208 | 0.0 | 0.0 | 0.00 | 0.12 | 0.12 | 98 | 1017.1 |
| 20260502060053 | 35 | 203 | 0.0 | 0.0 | 0.00 | 0.12 | 0.12 | 98 | 1016.9 |
| 20260502055550 | 35 | 203 | 0.0 | 0.0 | 0.00 | 0.12 | 0.12 | 98 | 1017.1 |
| 20260502055049 | 35 | 203 | 0.0 | 0.0 | 0.00 | 0.12 | 0.12 | 98 | 1017.0 |
| 20260502054547 | 35 | 203 | 0.0 | 0.0 | 0.00 | 0.12 | 0.12 | 98 | 1017.2 |
| 20260502054044 | 35 | 203 | 0.0 | 0.0 | 0.00 | 0.12 | 0.12 | 98 | 1017.1 |
| 20260502053541 | 36 | 203 | 0.0 | 0.0 | 0.00 | 0.12 | 0.12 | 98 | 1017.2 |
| 20260502053039 | 36 | 203 | 0.0 | 0.0 | 0.00 | 0.12 | 0.12 | 98 | 1017.3 |
| 20260502052537 | 36 | 211 | 0.0 | 0.0 | 0.00 | 0.12 | 0.12 | 98 | 1017.3 |
| 20260502052035 | 36 | 211 | 0.0 | 0.0 | 0.00 | 0.12 | 0.12 | 98 | 1017.1 |
| 20260502051532 | 36 | 226 | 0.0 | 0.0 | 0.00 | 0.12 | 0.12 | 98 | 1017.1 |
| 20260502051030 | 36 | 227 | 0.0 | 0.0 | 0.00 | 0.12 | 0.12 | 98 | 1017.1 |
| 20260502050526 | 36 | 229 | 0.0 | 0.0 | 0.00 | 0.12 | 0.12 | 98 | 1017.1 |
| 20260502050023 | 36 | 192 | 0.0 | 0.0 | 0.00 | 0.12 | 0.12 | 98 | 1017.1 |
| 20260502045520 | 36 | 192 | 0.0 | 0.0 | 0.00 | 0.12 | 0.12 | 98 | 1017.2 |
| 20260502045017 | 36 | 192 | 0.0 | 0.0 | 0.00 | 0.12 | 0.12 | 98 | 1017.0 |
| 20260502044513 | 36 | 192 | 0.0 | 0.0 | 0.00 | 0.12 | 0.12 | 98 | 1016.9 |
| 20260502044010 | 36 | 192 | 0.0 | 0.0 | 0.00 | 0.12 | 0.12 | 97 | 1017.0 |
| 20260502043508 | 37 | 192 | 0.0 | 0.0 | 0.00 | 0.12 | 0.12 | 98 | 1017.0 |
| 20260502043004 | 37 | 192 | 0.0 | 0.0 | 0.00 | 0.12 | 0.12 | 97 | 1017.0 |
| 20260502042459 | 37 | 192 | 0.0 | 0.0 | 0.00 | 0.12 | 0.12 | 97 | 1017.1 |
| 20260502041956 | 37 | 192 | 0.0 | 0.0 | 0.00 | 0.12 | 0.12 | 97 | 1016.9 |
| 20260502041454 | 37 | 192 | 0.0 | 0.0 | 0.00 | 0.12 | 0.12 | 97 | 1017.0 |
| 20260502040951 | 37 | 192 | 0.0 | 0.0 | 0.00 | 0.12 | 0.12 | 97 | 1017.1 |
| 20260502040447 | 37 | 192 | 0.0 | 0.0 | 0.00 | 0.12 | 0.12 | 97 | 1017.0 |
| 20260502035943 | 37 | 192 | 0.0 | 0.0 | 0.00 | 0.12 | 0.12 | 97 | 1017.0 |
| 20260502035440 | 38 | 191 | 0.0 | 0.0 | 0.00 | 0.12 | 0.12 | 97 | 1016.9 |
| 20260502034938 | 38 | 191 | 0.0 | 0.0 | 0.00 | 0.12 | 0.12 | 97 | 1016.8 |
| 20260502034437 | 38 | 192 | 0.0 | 0.0 | 0.00 | 0.12 | 0.12 | 97 | 1017.1 |
| 20260502033935 | 38 | 173 | 0.0 | 0.0 | 0.00 | 0.12 | 0.12 | 97 | 1017.0 |
| 20260502033432 | 38 | 173 | 0.0 | 0.0 | 0.00 | 0.12 | 0.12 | 97 | 1016.8 |
| 20260502032928 | 38 | 173 | 0.0 | 0.0 | 0.00 | 0.12 | 0.12 | 97 | 1017.1 |
| 20260502032425 | 38 | 173 | 0.0 | 0.0 | 0.00 | 0.12 | 0.12 | 97 | 1017.1 |
| 20260502031922 | 38 | 173 | 0.0 | 0.0 | 0.00 | 0.12 | 0.12 | 96 | 1017.1 |
| 20260502031421 | 38 | 173 | 0.0 | 0.0 | 0.00 | 0.12 | 0.12 | 96 | 1017.0 |
| 20260502030919 | 39 | 173 | 0.0 | 0.0 | 0.00 | 0.12 | 0.12 | 96 | 1017.1 |
| 20260502030417 | 39 | 173 | 0.0 | 0.0 | 0.00 | 0.12 | 0.12 | 96 | 1017.1 |
| 20260502025914 | 39 | 173 | 0.0 | 0.0 | 0.00 | 0.12 | 0.12 | 96 | 1017.0 |
| 20260502025411 | 39 | 173 | 0.0 | 0.0 | 0.00 | 0.12 | 0.12 | 96 | 1017.0 |
| 20260502024909 | 39 | 173 | 0.0 | 0.0 | 0.00 | 0.12 | 0.12 | 96 | 1017.3 |
| 20260502024407 | 39 | 159 | 0.0 | 0.0 | 0.00 | 0.12 | 0.12 | 96 | 1017.3 |
| 20260502023904 | 39 | 154 | 0.0 | 0.0 | 0.00 | 0.12 | 0.12 | 95 | 1017.1 |
| 20260502023402 | 40 | 154 | 0.0 | 0.0 | 0.00 | 0.12 | 0.12 | 95 | 1017.1 |
| 20260502022859 | 40 | 155 | 0.0 | 0.0 | 0.00 | 0.12 | 0.12 | 95 | 1017.1 |
| 20260502022355 | 40 | 146 | 0.0 | 0.0 | 0.00 | 0.12 | 0.12 | 95 | 1016.9 |
| 20260502021852 | 40 | 187 | 0.0 | 0.0 | 0.00 | 0.12 | 0.12 | 94 | 1016.9 |
| 20260502021349 | 40 | 187 | 0.0 | 0.0 | 0.00 | 0.12 | 0.12 | 94 | 1016.9 |
| 20260502020847 | 41 | 187 | 0.0 | 0.0 | 0.00 | 0.12 | 0.12 | 94 | 1016.8 |
| 20260502020345 | 41 | 187 | 0.0 | 0.0 | 0.00 | 0.12 | 0.12 | 94 | 1016.5 |
| 20260502015841 | 41 | 191 | 0.0 | 0.0 | 0.00 | 0.12 | 0.12 | 93 | 1016.5 |
| 20260502015338 | 41 | 191 | 0.0 | 0.0 | 0.00 | 0.12 | 0.12 | 93 | 1016.6 |
| 20260502014836 | 42 | 191 | 0.0 | 0.0 | 0.00 | 0.12 | 0.12 | 92 | 1016.4 |
| 20260502014333 | 42 | 192 | 0.0 | 0.0 | 0.00 | 0.12 | 0.12 | 92 | 1016.4 |
| 20260502013829 | 42 | 192 | 0.0 | 0.0 | 0.00 | 0.12 | 0.12 | 91 | 1016.1 |
| 20260502013324 | 42 | 192 | 0.0 | 0.0 | 0.00 | 0.12 | 0.12 | 91 | 1016.3 |
| 20260502012821 | 43 | 192 | 0.0 | 0.0 | 0.00 | 0.12 | 0.12 | 90 | 1016.0 |
| 20260502012319 | 43 | 180 | 0.0 | 0.0 | 0.00 | 0.12 | 0.12 | 88 | 1016.1 |
| 20260502011816 | 43 | 180 | 0.0 | 0.0 | 0.07 | 0.12 | 0.12 | 87 | 1015.9 |
| 20260502011312 | 44 | 213 | 0.0 | 1.0 | 0.07 | 0.12 | 0.12 | 86 | 1015.8 |
| 20260502010809 | 44 | 123 | 0.0 | 0.0 | 0.07 | 0.11 | 0.11 | 83 | 1015.9 |
| 20260502010305 | 45 | 121 | 1.0 | 2.0 | 0.07 | 0.11 | 0.11 | 80 | 1015.8 |
| 20260502005802 | 46 | 322 | 1.0 | 2.0 | 0.00 | 0.10 | 0.10 | 77 | 1015.9 |
| 20260502005300 | 46 | 298 | 2.0 | 2.0 | 0.00 | 0.10 | 0.10 | 76 | 1015.6 |
| 20260502004757 | 47 | 91 | 0.0 | 1.0 | 0.00 | 0.10 | 0.10 | 77 | 1015.5 |
| 20260502004253 | 46 | 5 | 1.0 | 3.0 | 0.00 | 0.10 | 0.10 | 77 | 1015.4 |
| 20260502003752 | 46 | 175 | 0.0 | 0.0 | 0.00 | 0.10 | 0.10 | 80 | 1015.1 |
| 20260502003248 | 46 | 174 | 0.0 | 0.0 | 0.00 | 0.10 | 0.10 | 80 | 1015.1 |
| 20260502002744 | 47 | 203 | 0.0 | 1.0 | 0.00 | 0.10 | 0.10 | 79 | 1015.3 |
| 20260502002242 | 47 | 232 | 0.0 | 0.0 | 0.00 | 0.10 | 0.10 | 75 | 1015.3 |
| 20260502001739 | 48 | 234 | 0.0 | 0.0 | 0.00 | 0.10 | 0.10 | 72 | 1015.4 |
| 20260502001237 | 48 | 235 | 0.0 | 1.0 | 0.00 | 0.10 | 0.10 | 71 | 1015.3 |
| 20260502000735 | 48 | 356 | 0.0 | 1.0 | 0.00 | 0.10 | 0.10 | 71 | 1015.4 |
| 20260502000233 | 48 | 270 | 1.0 | 2.0 | 0.00 | 0.10 | 0.10 | 71 | 1015.2 |
| 20260501235727 | 48 | 195 | 0.0 | 3.0 | 0.00 | 0.10 | 0.10 | 71 | 1015.1 |
| 20260501235223 | 48 | 225 | 0.0 | 0.0 | 0.00 | 0.10 | 0.10 | 74 | 1014.8 |
| 20260501234719 | 48 | 227 | 0.0 | 0.0 | 0.00 | 0.10 | 0.10 | 73 | 1014.7 |
| 20260501234216 | 48 | 265 | 0.0 | 1.0 | 0.00 | 0.10 | 0.10 | 70 | 1014.7 |
| 20260501233714 | 49 | 252 | 0.0 | 0.0 | 0.00 | 0.10 | 0.10 | 70 | 1014.6 |
| 20260501233211 | 49 | 271 | 0.0 | 0.0 | 0.00 | 0.10 | 0.10 | 70 | 1014.5 |
| 20260501232707 | 49 | 265 | 1.0 | 2.0 | 0.00 | 0.10 | 0.10 | 70 | 1014.6 |
| 20260501232204 | 49 | 243 | 0.0 | 1.0 | 0.00 | 0.10 | 0.10 | 70 | 1014.5 |
| 20260501231702 | 49 | 8 | 0.0 | 1.0 | 0.00 | 0.10 | 0.10 | 70 | 1014.5 |
| 20260501231200 | 49 | 279 | 1.0 | 2.0 | 0.00 | 0.10 | 0.10 | 70 | 1014.6 |
| 20260501230658 | 49 | 277 | 1.0 | 2.0 | 0.00 | 0.10 | 0.10 | 69 | 1014.6 |
| 20260501230156 | 49 | 293 | 0.0 | 2.0 | 0.00 | 0.10 | 0.10 | 70 | 1014.3 |
| 20260501225653 | 49 | 54 | 1.0 | 2.0 | 0.00 | 0.10 | 0.10 | 69 | 1014.3 |
| 20260501225150 | 49 | 9 | 0.0 | 1.0 | 0.00 | 0.10 | 0.10 | 69 | 1014.5 |
| 20260501224646 | 49 | 73 | 0.0 | 3.0 | 0.00 | 0.10 | 0.10 | 69 | 1014.4 |
| 20260501224144 | 49 | 81 | 1.0 | 3.0 | 0.00 | 0.10 | 0.10 | 69 | 1014.5 |
| 20260501223640 | 49 | 267 | 0.0 | 4.0 | 0.00 | 0.10 | 0.10 | 70 | 1014.5 |
| 20260501223137 | 49 | 246 | 0.0 | 2.0 | 0.00 | 0.10 | 0.10 | 69 | 1014.5 |
| 20260501222632 | 49 | 289 | 1.0 | 2.0 | 0.00 | 0.10 | 0.10 | 70 | 1014.3 |
| 20260501222130 | 50 | 345 | 1.0 | 3.0 | 0.00 | 0.10 | 0.10 | 68 | 1014.6 |